Thunderstorms From: 15-12-2017 06:00 Until: 16-12-2017 06:00 warning for: Thunderstorms Level: Yellow info button

Although rather usual in this region, locally or potentially dangerous phenomena are expected. (such as local winds, summer thunderstorms, rising streams or high waves) Be aware and pay attention to the latest weather updates, especially if you carry out activities exposed to weather or close to a stream or shoreline. 


Meteo18 Weather Cam more information Meteo18 Weather Cam


warning for Thunderstorms more information blitzortung!


Rain radar more information rain snow radar


Visit our other weather sites:

Template documentation
and downloads

And another site



Weather Underground History page Text

Daily Summary for September 2, 2017 Units:  English    Metric   Both
« Previous Day
Next Day »
Daily Weekly Monthly Yearly Custom
  High: Low: Average:
Temperature: 67.6 °F 51.8 °F 58.6 °F
Dew Point: 54.1 °F 48.9 °F 51.1 °F
Humidity: 94 % 52 % 77 %
Wind Speed: 15 mph 0 mph 1.7 mph
Wind Gust: 17 mph - -
Wind:- - SW
Pressure: 30.2 in 30.2 in -
Precipitation: 0 in    
Historical Graphs
 
 
Tabular Data for September 2, 2017
Time Temperature Dew Point Pressure Wind Wind Speed Wind Gust Humidity Rainfall Rate (Hourly)
00:02 55.2 °F 51.1 °F 30.2 in West 1 mph 2 mph 86 % 0 in
00:07 55 °F 50.9 °F 30.2 in Calm   3 mph 86 % 0 in
00:12 54.9 °F 51.1 °F 30.2 in Calm   3 mph 87 % 0 in
00:17 54.9 °F 51.1 °F 30.2 in Calm   3 mph 87 % 0 in
00:22 54.7 °F 50.9 °F 30.2 in Calm   3 mph 87 % 0 in
00:32 54.3 °F 50.9 °F 30.2 in Calm   1 mph 88 % 0 in
00:37 54 °F 50.5 °F 30.2 in Calm   1 mph 88 % 0 in
00:42 53.4 °F 50.2 °F 30.2 in Calm   3 mph 89 % 0 in
00:52 53.1 °F 50.2 °F 30.2 in Calm   3 mph 90 % 0 in
00:57 53.1 °F 50.2 °F 30.2 in Calm   1 mph 90 % 0 in
01:02 52.9 °F 50.4 °F 30.2 in Calm   1 mph 91 % 0 in
01:12 52.9 °F 50.4 °F 30.2 in Calm   1 mph 91 % 0 in
01:17 52.7 °F 50.4 °F 30.2 in Calm   1 mph 92 % 0 in
01:22 52.9 °F 50.5 °F 30.2 in Calm   1 mph 92 % 0 in
01:27 52.9 °F 50.5 °F 30.2 in Calm   1 mph 92 % 0 in
01:32 52.9 °F 50.5 °F 30.2 in Calm   1 mph 92 % 0 in
01:37 53.1 °F 50.7 °F 30.2 in Calm     92 % 0 in
01:42 52.9 °F 50.5 °F 30.2 in Calm     92 % 0 in
01:47 53.1 °F 50.7 °F 30.2 in Calm     92 % 0 in
01:52 53.1 °F 50.7 °F 30.2 in Calm     92 % 0 in
01:57 53.2 °F 50.9 °F 30.2 in Calm     92 % 0 in
02:02 53.2 °F 50.7 °F 30.2 in Calm     91 % 0 in
02:12 53.1 °F 50.5 °F 30.2 in Calm     91 % 0 in
02:17 53.2 °F 50.9 °F 30.2 in Calm     92 % 0 in
02:22 53.2 °F 50.9 °F 30.2 in Calm     92 % 0 in
02:32 53.2 °F 50.9 °F 30.2 in Calm     92 % 0 in
02:37 53.2 °F 50.9 °F 30.2 in Calm     92 % 0 in
02:42 53.2 °F 50.9 °F 30.2 in Calm     92 % 0 in
02:52 53.1 °F 50.7 °F 30.2 in Calm     92 % 0 in
02:57 52.9 °F 50.5 °F 30.2 in Calm     92 % 0 in
03:02 52.9 °F 50.5 °F 30.2 in Calm     92 % 0 in
03:07 53.1 °F 51.1 °F 30.2 in Calm     93 % 0 in
03:12 53.1 °F 51.1 °F 30.2 in Calm     93 % 0 in
03:17 52.9 °F 50.9 °F 30.2 in Calm     93 % 0 in
03:22 52.9 °F 50.9 °F 30.2 in Calm     93 % 0 in
03:27 52.9 °F 50.9 °F 30.2 in Calm     93 % 0 in
03:32 52.9 °F 50.9 °F 30.2 in Calm     93 % 0 in
03:37 52.9 °F 50.9 °F 30.2 in Calm     93 % 0 in
03:42 52.7 °F 50.7 °F 30.2 in Calm     93 % 0 in
03:47 52.5 °F 50.5 °F 30.2 in Calm     93 % 0 in
03:52 52.5 °F 50.5 °F 30.2 in Calm     93 % 0 in
03:57 52.3 °F 50.4 °F 30.2 in Calm     93 % 0 in
04:02 52.2 °F 50.2 °F 30.2 in Calm     93 % 0 in
04:12 52.2 °F 50.5 °F 30.2 in Calm     94 % 0 in
04:17 52.2 °F 50.5 °F 30.2 in Calm     94 % 0 in
04:22 52.2 °F 50.5 °F 30.2 in Calm     94 % 0 in
04:27 52 °F 50.4 °F 30.2 in Calm     94 % 0 in
04:32 52 °F 50.4 °F 30.2 in Calm     94 % 0 in
04:37 52 °F 50.4 °F 30.2 in Calm     94 % 0 in
04:42 52 °F 50.4 °F 30.2 in Calm     94 % 0 in
04:47 52 °F 50.4 °F 30.2 in Calm     94 % 0 in
04:52 52 °F 50.4 °F 30.2 in Calm     94 % 0 in
04:57 52 °F 50.4 °F 30.2 in Calm     94 % 0 in
05:02 51.8 °F 50.2 °F 30.2 in Calm     94 % 0 in
05:12 52 °F 50.4 °F 30.2 in Calm     94 % 0 in
05:17 52 °F 50.4 °F 30.2 in Calm     94 % 0 in
05:27 52 °F 50 °F 30.2 in Calm     93 % 0 in
05:32 52 °F 50 °F 30.2 in West 1 mph   93 % 0 in
05:37 52.2 °F 50.2 °F 30.2 in Calm   2 mph 93 % 0 in
05:42 52.3 °F 50 °F 30.2 in West 1 mph 2 mph 92 % 0 in
05:52 52.5 °F 50.2 °F 30.2 in WNW 2 mph 2 mph 92 % 0 in
05:57 53.1 °F 50.5 °F 30.2 in West 1 mph 7 mph 91 % 0 in
06:02 53.2 °F 50.4 °F 30.2 in WNW 2 mph 7 mph 90 % 0 in
06:07 53.4 °F 50.2 °F 30.2 in NW 1 mph 7 mph 89 % 0 in
06:12 53.6 °F 50.4 °F 30.2 in WNW 3 mph 7 mph 89 % 0 in
06:17 53.8 °F 50.4 °F 30.2 in NNW 2 mph 8 mph 88 % 0 in
06:22 53.8 °F 50.4 °F 30.2 in WNW 2 mph 8 mph 88 % 0 in
06:32 53.8 °F 50.4 °F 30.2 in NW 2 mph 7 mph 88 % 0 in
06:37 53.8 °F 50.4 °F 30.2 in NNW 2 mph 7 mph 88 % 0 in
06:42 53.8 °F 50.4 °F 30.2 in NE 3 mph 6 mph 88 % 0 in
06:47 53.8 °F 50.5 °F 30.2 in NNW 2 mph 6 mph 89 % 0 in
06:52 53.6 °F 50.4 °F 30.2 in NNW 1 mph 5 mph 89 % 0 in
07:02 53.6 °F 50.4 °F 30.2 in NW 1 mph 3 mph 89 % 0 in
07:07 53.4 °F 50.2 °F 30.2 in NNW 1 mph 3 mph 89 % 0 in
07:12 53.4 °F 50.2 °F 30.2 in Calm   3 mph 89 % 0 in
07:17 53.4 °F 50.2 °F 30.2 in NW 1 mph 2 mph 89 % 0 in
07:22 53.4 °F 50.2 °F 30.2 in Calm   1 mph 89 % 0 in
07:27 53.4 °F 50.2 °F 30.2 in Calm   1 mph 89 % 0 in
07:32 53.4 °F 50.2 °F 30.2 in Calm   1 mph 89 % 0 in
07:37 53.4 °F 50.2 °F 30.2 in Calm     89 % 0 in
07:42 53.2 °F 50.4 °F 30.2 in Calm     90 % 0 in
07:47 53.4 °F 50.5 °F 30.2 in Calm     90 % 0 in
07:52 53.4 °F 50.5 °F 30.2 in Calm   1 mph 90 % 0 in
07:57 53.4 °F 50.5 °F 30.2 in Calm   2 mph 90 % 0 in
08:02 53.6 °F 50.7 °F 30.2 in Calm   2 mph 90 % 0 in
08:07 53.8 °F 50.9 °F 30.2 in Calm   1 mph 90 % 0 in
08:12 53.8 °F 50.9 °F 30.2 in Calm   1 mph 90 % 0 in
08:17 53.8 °F 50.9 °F 30.2 in WNW 1 mph 1 mph 90 % 0 in
08:22 54 °F 51.1 °F 30.2 in Calm   1 mph 90 % 0 in
08:27 54 °F 51.1 °F 30.2 in Calm   1 mph 90 % 0 in
08:32 54.1 °F 51.3 °F 30.2 in NW 1 mph 2 mph 90 % 0 in
08:37 54.1 °F 51.3 °F 30.2 in Calm   2 mph 90 % 0 in
08:42 54.3 °F 51.4 °F 30.2 in Calm   2 mph 90 % 0 in
08:47 54.3 °F 51.4 °F 30.2 in Calm   2 mph 90 % 0 in
08:52 54.7 °F 51.4 °F 30.2 in WNW 1 mph 1 mph 89 % 0 in
08:57 54.9 °F 51.6 °F 30.2 in Calm   2 mph 89 % 0 in
09:02 55 °F 51.8 °F 30.2 in Calm   2 mph 89 % 0 in
09:12 55.6 °F 51.8 °F 30.2 in Calm   1 mph 87 % 0 in
09:17 55.8 °F 52 °F 30.2 in Calm   1 mph 87 % 0 in
09:22 55.9 °F 51.8 °F 30.2 in Calm   1 mph 86 % 0 in
09:27 56.1 °F 52 °F 30.2 in Calm   1 mph 86 % 0 in
09:32 56.7 °F 52.5 °F 30.2 in Calm   1 mph 86 % 0 in
09:37 56.7 °F 51.8 °F 30.2 in Calm   1 mph 84 % 0 in
09:42 57 °F 52.2 °F 30.2 in Calm   4 mph 84 % 0 in
09:47 57.6 °F 52.7 °F 30.2 in Calm   4 mph 84 % 0 in
09:52 57.7 °F 52.3 °F 30.2 in West 2 mph 4 mph 82 % 0 in
09:57 57.9 °F 52.5 °F 30.2 in NW 3 mph 3 mph 82 % 0 in
10:02 57.9 °F 52.5 °F 30.2 in NNE 1 mph 4 mph 82 % 0 in
10:07 58.3 °F 52.9 °F 30.2 in North 1 mph 6 mph 82 % 0 in
10:12 58.3 °F 53.1 °F 30.2 in NE 2 mph 7 mph 83 % 0 in
10:17 58.3 °F 52.9 °F 30.2 in North 2 mph 7 mph 82 % 0 in
10:22 58.1 °F 52.7 °F 30.2 in NNW 4 mph 7 mph 82 % 0 in
10:27 58.3 °F 52.9 °F 30.2 in WNW 1 mph 6 mph 82 % 0 in
10:32 58.5 °F 53.1 °F 30.2 in NNE 1 mph 5 mph 82 % 0 in
10:37 59 °F 53.2 °F 30.2 in North 2 mph 4 mph 81 % 0 in
10:42 59.4 °F 53.6 °F 30.2 in NE 6 mph 6 mph 81 % 0 in
10:47 59.5 °F 53.4 °F 30.2 in NNE 5 mph 7 mph 80 % 0 in
10:52 59.4 °F 53.2 °F 30.2 in NNE 5 mph 11 mph 80 % 0 in
10:57 59.2 °F 53.1 °F 30.2 in NNE 3 mph 11 mph 80 % 0 in
11:02 59.5 °F 54 °F 30.2 in Calm   11 mph 82 % 0 in
11:07 59.9 °F 53.4 °F 30.2 in NNW 3 mph 8 mph 79 % 0 in
11:12 59.9 °F 53.4 °F 30.2 in WNW 1 mph 7 mph 79 % 0 in
11:17 59.5 °F 52.7 °F 30.2 in NE 5 mph 7 mph 78 % 0 in
11:22 59.5 °F 53.1 °F 30.2 in Calm   6 mph 79 % 0 in
11:27 59.9 °F 53.4 °F 30.2 in NNE 1 mph 6 mph 79 % 0 in
11:32 60.1 °F 53.2 °F 30.2 in Calm   6 mph 78 % 0 in
11:37 60.3 °F 52.7 °F 30.2 in NNE 3 mph 3 mph 76 % 0 in
11:42 60.3 °F 52.7 °F 30.2 in NE 3 mph 6 mph 76 % 0 in
11:47 60.6 °F 52.3 °F 30.2 in ENE 3 mph 6 mph 74 % 0 in
11:52 61.2 °F 53.2 °F 30.2 in East 2 mph 6 mph 75 % 0 in
11:57 61.9 °F 52.7 °F 30.2 in NNE 2 mph 6 mph 72 % 0 in
12:02 62.2 °F 54.1 °F 30.2 in East 2 mph 5 mph 75 % 0 in
12:07 62.4 °F 53.2 °F 30.2 in Calm   5 mph 72 % 0 in
12:12 61.9 °F 53.4 °F 30.2 in Calm   4 mph 74 % 0 in
12:17 61.7 °F 53.8 °F 30.2 in Calm   3 mph 75 % 0 in
12:22 61.3 °F 52.7 °F 30.2 in Calm   3 mph 73 % 0 in
12:27 61.2 °F 52.9 °F 30.2 in Calm   3 mph 74 % 0 in
12:32 61.2 °F 52.9 °F 30.2 in Calm   4 mph 74 % 0 in
12:37 61.3 °F 52.2 °F 30.2 in Calm   4 mph 72 % 0 in
12:42 61.3 °F 52.7 °F 30.2 in NNW 1 mph 4 mph 73 % 0 in
12:47 61.3 °F 52.2 °F 30.2 in WNW 1 mph 4 mph 72 % 0 in
12:52 62.2 °F 53.1 °F 30.2 in Calm   3 mph 72 % 0 in
12:57 62.6 °F 52.7 °F 30.2 in NE 3 mph 3 mph 70 % 0 in
13:02 63.1 °F 54 °F 30.2 in WNW 3 mph 4 mph 72 % 0 in
13:07 63.3 °F 53.1 °F 30.2 in WNW 2 mph 5 mph 69 % 0 in
13:12 63.7 °F 53.2 °F 30.2 in West 3 mph 7 mph 69 % 0 in
13:17 64.2 °F 53.8 °F 30.2 in NNW 1 mph 7 mph 69 % 0 in
13:22 64.2 °F 51.4 °F 30.2 in NNW 4 mph 7 mph 63 % 0 in
13:27 63.9 °F 51.4 °F 30.2 in WNW 3 mph 11 mph 64 % 0 in
13:32 64.2 °F 51.4 °F 30.2 in WNW 2 mph 11 mph 63 % 0 in
13:37 64.9 °F 50.7 °F 30.2 in NNW 3 mph 11 mph 60 % 0 in
13:42 64.9 °F 50.7 °F 30.2 in WNW 1 mph 9 mph 60 % 0 in
13:47 65.5 °F 51.6 °F 30.2 in NNE 4 mph 9 mph 61 % 0 in
13:52 65.1 °F 51.3 °F 30.2 in NE 5 mph 9 mph 61 % 0 in
13:57 64.8 °F 51.4 °F 30.2 in NW 1 mph 12 mph 62 % 0 in
14:02 65.5 °F 51.3 °F 30.2 in NNW 3 mph 12 mph 60 % 0 in
14:07 66 °F 50.4 °F 30.2 in WNW 5 mph 12 mph 57 % 0 in
14:12 66.4 °F 49.6 °F 30.2 in WNW 4 mph 9 mph 55 % 0 in
14:17 66.6 °F 49.5 °F 30.2 in NW 5 mph 10 mph 54 % 0 in
14:27 67.1 °F 49.8 °F 30.2 in NW 1 mph 12 mph 54 % 0 in
14:32 67.6 °F 50.4 °F 30.2 in NNW 4 mph 12 mph 54 % 0 in
14:42 67.3 °F 49.1 °F 30.2 in North 6 mph 12 mph 52 % 0 in
14:47 66.4 °F 50.2 °F 30.2 in NW 9 mph 12 mph 56 % 0 in
14:52 64.9 °F 50.7 °F 30.2 in WNW 4 mph 12 mph 60 % 0 in
14:57 63.7 °F 50 °F 30.2 in NW 6 mph 16 mph 61 % 0 in
15:02 62.8 °F 49.1 °F 30.2 in WNW 15 mph 16 mph 61 % 0 in
15:12 61.2 °F 49.6 °F 30.2 in WSW 7 mph 17 mph 66 % 0 in
15:17 60.8 °F 50.2 °F 30.2 in WNW 4 mph 17 mph 68 % 0 in
15:22 61 °F 50.4 °F 30.2 in West 9 mph 14 mph 68 % 0 in
15:27 61 °F 50.4 °F 30.2 in NNE 7 mph 16 mph 68 % 0 in
15:32 61.2 °F 50.5 °F 30.2 in NNW 9 mph 16 mph 68 % 0 in
15:37 61.9 °F 50.7 °F 30.2 in WNW 5 mph 16 mph 67 % 0 in
15:42 63 °F 52.2 °F 30.2 in West 6 mph 14 mph 68 % 0 in
15:47 63.9 °F 51.8 °F 30.2 in WNW 5 mph 14 mph 65 % 0 in
15:52 64.6 °F 50.4 °F 30.2 in SW 4 mph 15 mph 60 % 0 in
15:57 64.9 °F 50.7 °F 30.2 in WNW 9 mph 15 mph 60 % 0 in
16:02 65.1 °F 50 °F 30.2 in WSW 8 mph 15 mph 58 % 0 in
16:07 65.1 °F 50.4 °F 30.2 in NNW 7 mph 14 mph 59 % 0 in
16:12 65.7 °F 51.4 °F 30.2 in WNW 7 mph 15 mph 60 % 0 in
16:17 65.7 °F 51.4 °F 30.2 in North 4 mph 15 mph 60 % 0 in
16:22 66.2 °F 51.4 °F 30.2 in WSW 6 mph 15 mph 59 % 0 in
16:32 66.4 °F 50.7 °F 30.2 in WNW 2 mph 11 mph 57 % 0 in
16:37 66.7 °F 52 °F 30.2 in WSW 7 mph 11 mph 59 % 0 in
16:42 66.2 °F 52.3 °F 30.2 in WNW 5 mph 10 mph 61 % 0 in
16:47 66.2 °F 49.6 °F 30.2 in NNW 6 mph 14 mph 55 % 0 in
16:52 65.5 °F 48.9 °F 30.2 in WNW 10 mph 14 mph 55 % 0 in
16:57 64.9 °F 49.3 °F 30.2 in WNW 8 mph 14 mph 57 % 0 in
17:02 65.5 °F 50.7 °F 30.2 in North 4 mph 14 mph 59 % 0 in
17:07 66 °F 50.9 °F 30.2 in North 5 mph 14 mph 58 % 0 in
17:12 66.2 °F 50.9 °F 30.2 in WNW 8 mph 13 mph 58 % 0 in
17:17 66.7 °F 51.4 °F 30.2 in NNW 8 mph 11 mph 58 % 0 in
17:22 66.7 °F 51.1 °F 30.2 in WNW 7 mph 11 mph 57 % 0 in
17:27 67.3 °F 50.5 °F 30.2 in NW 4 mph 12 mph 55 % 0 in
17:32 67.5 °F 49.8 °F 30.2 in NNE 5 mph 12 mph 53 % 0 in
17:37 67.1 °F 50.4 °F 30.2 in North 4 mph 12 mph 55 % 0 in
17:42 65.8 °F 51.6 °F 30.2 in NW 6 mph 16 mph 60 % 0 in
17:47 64.2 °F 50.9 °F 30.2 in NE 5 mph 16 mph 62 % 0 in
17:52 63.5 °F 51.1 °F 30.2 in NNE 7 mph 16 mph 64 % 0 in
17:57 63.1 °F 51.6 °F 30.2 in ENE 7 mph 14 mph 66 % 0 in
18:02 63.3 °F 51.8 °F 30.2 in ENE 3 mph 14 mph 66 % 0 in
18:07 64 °F 51.6 °F 30.2 in NE 7 mph 14 mph 64 % 0 in
18:12 64.2 °F 51.4 °F 30.2 in NE 1 mph 11 mph 63 % 0 in
18:17 64.9 °F 51.6 °F 30.2 in North 4 mph 8 mph 62 % 0 in
18:22 65.7 °F 51.4 °F 30.2 in NE 4 mph 8 mph 60 % 0 in
18:27 65.8 °F 50.7 °F 30.2 in NE 1 mph 7 mph 58 % 0 in
18:32 66 °F 51.8 °F 30.2 in NE 2 mph 7 mph 60 % 0 in
18:42 65.5 °F 52.2 °F 30.2 in NNW 3 mph 11 mph 62 % 0 in
18:47 65.5 °F 51.6 °F 30.2 in NNW 3 mph 11 mph 61 % 0 in
18:57 65.5 °F 51.3 °F 30.2 in NE 7 mph 8 mph 60 % 0 in
19:02 65.3 °F 50.5 °F 30.2 in NE 5 mph 8 mph 59 % 0 in
19:07 65.3 °F 52 °F 30.2 in ENE 3 mph 8 mph 62 % 0 in
19:12 65.1 °F 51.3 °F 30.2 in Calm   8 mph 61 % 0 in
19:17 65.5 °F 51.6 °F 30.2 in NE 1 mph 5 mph 61 % 0 in
19:22 65.5 °F 51.3 °F 30.2 in ENE 1 mph 4 mph 60 % 0 in
19:27 65.5 °F 51.6 °F 30.2 in North 2 mph 3 mph 61 % 0 in
19:32 65.5 °F 51.6 °F 30.2 in Calm   3 mph 61 % 0 in
19:37 65.7 °F 51.8 °F 30.2 in Calm   3 mph 61 % 0 in
19:42 65.8 °F 50.7 °F 30.2 in NW 2 mph 3 mph 58 % 0 in
19:47 65.5 °F 49.8 °F 30.2 in North 2 mph 4 mph 57 % 0 in
19:52 65.1 °F 49.5 °F 30.2 in Calm   4 mph 57 % 0 in
19:57 64.9 °F 49.8 °F 30.2 in Calm   4 mph 58 % 0 in
20:02 64.6 °F 49.5 °F 30.2 in Calm   3 mph 58 % 0 in
20:07 64 °F 49.5 °F 30.2 in Calm   1 mph 59 % 0 in
20:12 63.7 °F 50.4 °F 30.2 in Calm   1 mph 62 % 0 in
20:17 63 °F 51.1 °F 30.2 in Calm   1 mph 65 % 0 in
20:22 62.4 °F 51.3 °F 30.2 in Calm     67 % 0 in
20:27 61.9 °F 51.6 °F 30.2 in Calm     69 % 0 in
20:32 61.5 °F 51.6 °F 30.2 in Calm     70 % 0 in
20:37 61.2 °F 51.3 °F 30.2 in Calm     70 % 0 in
20:42 60.4 °F 51.1 °F 30.2 in Calm     71 % 0 in
20:47 60.1 °F 51.1 °F 30.2 in Calm     72 % 0 in
20:52 59.4 °F 50.7 °F 30.2 in Calm     73 % 0 in
20:57 58.8 °F 50.9 °F 30.2 in Calm     75 % 0 in
21:02 58.5 °F 50.5 °F 30.2 in Calm     75 % 0 in
21:07 57.9 °F 50.4 °F 30.2 in West 2 mph   76 % 0 in
21:12 57.9 °F 50.4 °F 30.2 in Calm   5 mph 76 % 0 in
21:17 57.9 °F 50.4 °F 30.2 in WSW 1 mph 5 mph 76 % 0 in
21:22 58.3 °F 50.4 °F 30.2 in NW 1 mph 5 mph 75 % 0 in
21:27 59.4 °F 50.7 °F 30.2 in NNW 2 mph 5 mph 73 % 0 in
21:32 59.9 °F 50.5 °F 30.2 in NNW 2 mph 5 mph 71 % 0 in
21:37 60.1 °F 50.7 °F 30.2 in Calm   4 mph 71 % 0 in
21:42 59.7 °F 50.4 °F 30.2 in WNW 1 mph 4 mph 71 % 0 in
21:52 59.2 °F 50.2 °F 30.2 in Calm   2 mph 72 % 0 in
21:57 59 °F 50.4 °F 30.2 in NNW 1 mph 2 mph 73 % 0 in
22:02 58.5 °F 50.2 °F 30.2 in WNW 2 mph 2 mph 74 % 0 in
22:07 58.3 °F 50.7 °F 30.2 in Calm   3 mph 76 % 0 in
22:12 58.3 °F 50.7 °F 30.2 in Calm   3 mph 76 % 0 in
22:17 58.3 °F 50.7 °F 30.2 in Calm   3 mph 76 % 0 in
22:22 58.3 °F 51.1 °F 30.2 in Calm   3 mph 77 % 0 in
22:27 58.3 °F 51.4 °F 30.2 in Calm   2 mph 78 % 0 in
22:32 58.3 °F 51.8 °F 30.2 in NW 1 mph 2 mph 79 % 0 in
22:37 58.3 °F 52.2 °F 30.2 in Calm   1 mph 80 % 0 in
22:42 58.1 °F 52 °F 30.2 in Calm   1 mph 80 % 0 in
22:47 57.9 °F 51.8 °F 30.2 in Calm   1 mph 80 % 0 in
22:52 57.6 °F 51.8 °F 30.2 in Calm   1 mph 81 % 0 in
22:57 57.2 °F 51.4 °F 30.2 in Calm   1 mph 81 % 0 in
23:02 56.7 °F 50.9 °F 30.2 in WNW 2 mph 2 mph 81 % 0 in
23:07 56.3 °F 50.9 °F 30.2 in Calm   2 mph 82 % 0 in
23:12 56.1 °F 50.7 °F 30.2 in Calm   2 mph 82 % 0 in
23:17 56.7 °F 50.9 °F 30.2 in Calm   2 mph 81 % 0 in
23:22 56.5 °F 50.7 °F 30.2 in WNW 1 mph 1 mph 81 % 0 in
23:27 55.8 °F 50.4 °F 30.2 in WNW 1 mph 1 mph 82 % 0 in
23:32 55.2 °F 50.2 °F 30.2 in WNW 2 mph 2 mph 83 % 0 in
23:42 55 °F 50 °F 30.2 in Calm   2 mph 83 % 0 in
23:47 55.2 °F 49.5 °F 30.2 in Calm   2 mph 81 % 0 in
23:52 55.4 °F 49.6 °F 30.2 in Calm   1 mph 81 % 0 in
23:57 55.2 °F 49.1 °F 30.2 in Calm     80 % 0 in
Meteo18
Compliments of Weather Underground - 4 mb

Script developed by  Jim McMurry - jmcmurry@mwt.net Adapted for the template by  Wim van der Kuil - Leuven-Template.eu

You find our weather info also at:

European Weather Network

Weather Underground

Equipment we use:

Weather-station
Davis Vue

Weather-program
Meteohub

Weather-server
Raspberry PI 2 B+

Provider
1 and 1

Davis Vue

Meteohub

Raspberry PI 2 B+

1 and 1